NOAA 16 DEB, 42358

Orbit data source: Space-Track

NOAA 16 DEB, 42358 is space debris in SSO originally from a launch on Thu, 21 Sep 2000 UTC launched from the Air Force Western Test Range (AFWTR). Debris objects in space refer to the collection of defunct objects orbiting the Earth. Examples of debris include non-operational satellites, rocket bodies, and fragments generated from explosions, collisions, or faulty payload assembly.

Loading next visibility...
Identifier
42358, 2000-055RA
Orbit
SSO
Country
Flag of USUS
Related business
Manufacturer
Unknown
Mission
Spacecraft
Bus & Motor
Unknown
Mass
Unknown
Launch date (UTC)
2000-09-21 (25 years ago)
Launch vehicle
Unknown
Launch site
Air Force Western Test Range (AFWTR)
Object type
Payload
Rocket body
Debris
Shape & HBR
Unknown shape, 0.1 m
Radar Cross Section
Small (<0.1 m²)

Expand to show TLE details & history
Last TLE update: 2 days ago

TLE from 2 days ago
0 NOAA 16 DEB
1 42358U 00055RA  25285.59249896  .00026821  00000-0  64865-2 0  9996
2 42358  98.8611  47.1989 0028202 348.0727  11.9796 14.52759612464953
Epoch: 2025-10-12T14:13Z
TLE epoch observation values (Epoch: 2025-10-12T14:13:11.910Z)
Latitude
0.00001°
Longitude
172.49186°
Altitude
700.029 km
Speed
7.516 km/s
True Right ascension
03h 08m 47s
True Declination
0° 00' 00"
Sunlit
Object was in full shadow at epoch
Visualization orbit readout
Latitude
Unknown
Longitude
Unknown
Altitude
Unknown
Speed
Unknown
Apparent Right ascension
Unknown
Apparent Declination
Unknown
Sunlit
N/A
Visualization observer readout
Local Sidereal Time
05:25:05
Azimuth
Unknown
Elevation
Unknown
Doppler factor
Unknown
Orbital elements
Apogee altitude
733.773 km
Perigee altitude
693.771 km
Semi-major axis
7,091.909 km
Eccentricity
0.00282
Inclination
98.8611°
RAAN
47.1989°
Arg. of periapsis
348.0727°
True anomaly
12.04691°
Mean anomaly
11.9796°
Eccentric anomaly
12.01323°
Mean motion
3.63411 °/min
Orbital period
99.06 mins
BSTAR
0.0064865
Loading maneuver chart data...
Computing Atmospheric mass density...
Loading historical data...
Loading historical data...
Loading historical data...
Loading historical data...
Loading historical data...
Loading historical data...
Loading historical data...

Documentation

Showing up to 5 results
|